This is the latest recevied weather packets stored in our database for station/object W0VI. If no packets are shown the sender has not sent any weather packets the latest 10 day(s).
| Time | Temp. | Humidity | Pressure | Rain* | Wind** | Luminosity | Snow |
|---|---|---|---|---|---|---|---|
| 1787578226 | 17.22° C | 81% | 1017.7 hPa | 0 mm | - | 95 W/m² | - |
| 1787577922 | 17.22° C | 82% | 1017.8 hPa | 0 mm | - | 71 W/m² | - |
| 1787577617 | 16.67° C | 83% | 1018 hPa | 0 mm | - | 97 W/m² | - |
| 1787577314 | 16.67° C | 83% | 1018.1 hPa | 0 mm | - | 72 W/m² | - |
| 1787577009 | 16.67° C | 83% | 1018 hPa | 0 mm | - | 55 W/m² | - |
| 1787576705 | 16.67° C | 84% | 1018 hPa | 0 mm | - | 54 W/m² | - |
| 1787576395 | 16.67° C | 84% | 1017.8 hPa | 0 mm | - | 46 W/m² | - |
| 1787576091 | 16.67° C | 84% | 1017.8 hPa | 0 mm | - | 43 W/m² | - |
| 1787575785 | 16.67° C | 83% | 1017.9 hPa | 0 mm | - | 34 W/m² | - |
| 1787575481 | 16.67° C | 84% | 1017.8 hPa | 0 mm | - | 39 W/m² | - |
| 1787575176 | 16.11° C | 84% | 1018.1 hPa | 0 mm | - | 52 W/m² | - |
| 1787574870 | 16.11° C | 84% | 1017.8 hPa | 0 mm | - | 39 W/m² | - |
| 1787574560 | 16.11° C | 84% | 1017.9 hPa | 0 mm | - | 27 W/m² | - |
| 1787574259 | 16.11° C | 85% | 1017.9 hPa | 0 mm | - | 30 W/m² | - |
| 1787573954 | 16.11° C | 85% | 1017.6 hPa | 0 mm | - | 27 W/m² | - |
| 1787573654 | 16.11° C | 85% | 1017.7 hPa | 0 mm | - | 18 W/m² | - |
| 1787573349 | 16.11° C | 85% | 1017.7 hPa | 0 mm | - | 13 W/m² | - |
| 1787573045 | 15.56° C | 85% | 1017.5 hPa | 0 mm | - | 12 W/m² | - |
| 1787572741 | 15.56° C | 86% | 1017.8 hPa | 0 mm | - | 11 W/m² | - |
| 1787572435 | 15.56° C | 87% | 1017.6 hPa | 0 mm | - | 12 W/m² | - |
| 1787572131 | 15° C | 87% | 1017.6 hPa | 0 mm | - | 10 W/m² | - |
| 1787571830 | 15° C | 88% | 1017.3 hPa | 0 mm | - | 6 W/m² | - |
| 1787571525 | 15° C | 88% | 1017.3 hPa | 0 mm | - | 6 W/m² | - |
| 1787571218 | 15° C | 88% | 1017.6 hPa | 0 mm | - | 4 W/m² | - |
| 1787570915 | 15° C | 89% | 1017.3 hPa | 0 mm | - | 2 W/m² | - |
* Rain latest hour (hover to see other rain measurements)
** Current wind speed in m/s (hover to see current wind gust speed)